Regional Weather Roundup
Issued by NWS

Home | Current Version | Previous Version | Text Only | Print | Product List | Glossary On
Versions: 1 2 3 4 5 6 7 8 9 10 11 12 13 14 15 16 17 18 19 20 21 22 23 24 25 26 27
000
ASUS42 KKEY 281610
RWRKEY

FLORIDA REGIONAL WEATHER ROUNDUP FOR THE FLORIDA KEYS
NATIONAL WEATHER SERVICE KEY WEST FLORIDA
1200 PM EDT SAT MAY 28 2016

...SOUTH FLORIDA AND THE KEYS...

CITY           SKY/WX    TMP DP  RH WIND       PRES   REMARKS
FORT MYERS     MOSUNNY   86  69  56 NE8       30.02F HX  90
SW REGIONAL AP PTSUNNY   86  70  58 VRB7      30.03S HX  90
NAPLES           N/A     85  69  58 MISG      30.03S
MIAMI          PTSUNNY   81  73  76 E10       30.05R
WEST KENDALL     N/A    N/A N/A N/A MISG      30.04R
HOMESTEAD      SUNNY     82  72  70 NE8       30.04R
MARATHON       MOSUNNY   87  70  56 S3        30.03S HX  92
BOCA CHICA NAS MOSUNNY   85  69  58 SE8       30.04R
KEY WEST INTL  SUNNY     84  70  62 SE7       30.04R

...INTERNATIONAL WEATHER...

CITY           SKY/WX    TMP DP  RH WIND       PRES   REMARKS
NASSAU BAHAMAS MOSUNNY   88  75  66 NW8       30.04S HX  97
CANCUN MEXICO  MOSUNNY   88  75  66 SE14      29.96S HX  97
COZUMEL MEXICO MOSUNNY   86  73  66 SE17      29.96R HX  93

ADJACENT COASTAL WATERS...

STATION/POSITION TIME  SKY/WX   TEMP    WIND        PRES    WAVE
                                AIR SEA DIR/SP/G            HT/PER
                 (UTC)          (F)     (DEG/KT/KT) (MB)    (FT/S)
PULASKI SHOAL LI 1600            81      80/  7/  8 1017.1R
SAND KEY         1550            81     110/  7/  8 1017.6R
SOMBRERO KEY     NOT AVBL
LONG KEY         1500            80 83   80/  2/  4 1017.4R
MOLASSES REEF    1600            82 83   CALM  /  2 1017.4R
FOWEY ROCKS      1600            76 82   40/  9/ 10 1018.1R

$$




USA.gov is the U.S. government's official web portal to all federal, state and local government web resources and services.